Year,Month,Day,Hour,Minute,Value (Times are PST for temperature in C)
2020,08,13,00,00,14.20
2020,08,13,00,01,14.20
2020,08,13,00,02,14.10
2020,08,13,00,03,14.10
2020,08,13,00,04,14.10
2020,08,13,00,05,14.10
2020,08,13,00,06,14.10
2020,08,13,00,07,14.00
2020,08,13,00,08,14.00
2020,08,13,00,09,14.00
2020,08,13,00,10,14.00
2020,08,13,00,11,14.00
2020,08,13,00,12,13.90
2020,08,13,00,13,13.90
2020,08,13,00,14,13.90
2020,08,13,00,15,13.90
2020,08,13,00,16,13.80
2020,08,13,00,17,13.80
2020,08,13,00,18,13.80
2020,08,13,00,19,13.80
2020,08,13,00,20,13.70
2020,08,13,00,21,13.70
2020,08,13,00,22,13.70
2020,08,13,00,23,13.70
2020,08,13,00,24,13.70
2020,08,13,00,25,13.70
2020,08,13,00,26,13.60
2020,08,13,00,27,13.60
2020,08,13,00,28,13.50
2020,08,13,00,29,13.50
2020,08,13,00,30,13.50
2020,08,13,00,31,13.40
2020,08,13,00,32,13.40
2020,08,13,00,33,13.40
2020,08,13,00,34,13.30
2020,08,13,00,35,13.30
2020,08,13,00,36,13.30
2020,08,13,00,37,13.30
2020,08,13,00,38,13.30
2020,08,13,00,39,13.20
2020,08,13,00,40,13.20
2020,08,13,00,41,13.20
2020,08,13,00,42,13.20
2020,08,13,00,43,13.20
2020,08,13,00,44,13.10
2020,08,13,00,45,13.10
2020,08,13,00,46,13.10
2020,08,13,00,47,13.10
2020,08,13,00,48,13.10
2020,08,13,00,49,13.00
2020,08,13,00,50,13.00
2020,08,13,00,51,13.00
2020,08,13,00,52,13.00
2020,08,13,00,53,13.00
2020,08,13,00,54,12.90
2020,08,13,00,55,12.90
2020,08,13,00,56,12.90
2020,08,13,00,57,12.90
2020,08,13,00,58,12.90
2020,08,13,00,59,12.80
2020,08,13,01,00,12.80
2020,08,13,01,01,12.80
2020,08,13,01,02,12.80
2020,08,13,01,03,12.80
2020,08,13,01,04,12.80
2020,08,13,01,05,12.80
2020,08,13,01,06,12.80
2020,08,13,01,07,12.80
2020,08,13,01,08,12.80
2020,08,13,01,09,12.80
2020,08,13,01,10,12.80
2020,08,13,01,11,12.80
2020,08,13,01,12,12.80
2020,08,13,01,13,12.80
2020,08,13,01,14,12.70
2020,08,13,01,15,12.80
2020,08,13,01,16,12.80
2020,08,13,01,17,12.80
2020,08,13,01,18,12.80
2020,08,13,01,19,12.80
2020,08,13,01,20,12.80
2020,08,13,01,21,12.90
2020,08,13,01,22,12.90
2020,08,13,01,23,12.90
2020,08,13,01,24,12.90
2020,08,13,01,25,12.90
2020,08,13,01,26,12.90
2020,08,13,01,27,12.90
2020,08,13,01,28,12.90
2020,08,13,01,29,12.90
2020,08,13,01,30,12.90
2020,08,13,01,31,12.90
2020,08,13,01,32,12.80
2020,08,13,01,33,12.80
2020,08,13,01,34,12.80
2020,08,13,01,35,12.80
2020,08,13,01,36,12.70
2020,08,13,01,37,12.70
2020,08,13,01,38,12.60
2020,08,13,01,39,12.60
2020,08,13,01,40,12.60
2020,08,13,01,41,12.60
2020,08,13,01,42,12.50
2020,08,13,01,43,12.50
2020,08,13,01,44,12.50
2020,08,13,01,45,12.50
2020,08,13,01,46,12.50
2020,08,13,01,47,12.50
2020,08,13,01,48,12.50
2020,08,13,01,49,12.40
2020,08,13,01,50,12.40
2020,08,13,01,51,12.40
2020,08,13,01,52,12.40
2020,08,13,01,53,12.30
2020,08,13,01,54,12.30
2020,08,13,01,55,12.30
2020,08,13,01,56,12.30
2020,08,13,01,57,12.30
2020,08,13,01,58,12.30
2020,08,13,01,59,12.30
2020,08,13,02,00,12.30
2020,08,13,02,01,12.30
2020,08,13,02,02,12.30
2020,08,13,02,03,12.30
2020,08,13,02,04,12.30
2020,08,13,02,05,12.30
2020,08,13,02,06,12.30
2020,08,13,02,07,12.30
2020,08,13,02,08,12.20
2020,08,13,02,09,12.20
2020,08,13,02,10,12.10
2020,08,13,02,11,12.10
2020,08,13,02,12,12.00
2020,08,13,02,13,12.00
2020,08,13,02,14,11.90
2020,08,13,02,15,11.90
2020,08,13,02,16,11.80
2020,08,13,02,17,11.80
2020,08,13,02,18,11.80
2020,08,13,02,19,11.70
2020,08,13,02,20,11.70
2020,08,13,02,21,11.60
2020,08,13,02,22,11.60
2020,08,13,02,23,11.60
2020,08,13,02,24,11.50
2020,08,13,02,25,11.40
2020,08,13,02,26,11.40
2020,08,13,02,27,11.40
2020,08,13,02,28,11.40
2020,08,13,02,29,11.40
2020,08,13,02,30,11.40
2020,08,13,02,31,11.40
2020,08,13,02,32,11.60
2020,08,13,02,33,11.60
2020,08,13,02,34,11.60
2020,08,13,02,35,11.60
2020,08,13,02,36,11.60
2020,08,13,02,37,11.60
2020,08,13,02,38,11.60
2020,08,13,02,39,11.50
2020,08,13,02,40,11.40
2020,08,13,02,41,11.40
2020,08,13,02,42,11.40
2020,08,13,02,43,11.40
2020,08,13,02,44,11.40
2020,08,13,02,45,11.40
2020,08,13,02,46,11.40
2020,08,13,02,47,11.40
2020,08,13,02,48,11.40
2020,08,13,02,49,11.40
2020,08,13,02,50,11.40
2020,08,13,02,51,11.40
2020,08,13,02,52,11.40
2020,08,13,02,53,11.40
2020,08,13,02,54,11.40
2020,08,13,02,55,11.40
2020,08,13,02,56,11.40
2020,08,13,02,57,11.40
2020,08,13,02,58,11.40
2020,08,13,02,59,11.40
2020,08,13,03,00,11.40
2020,08,13,03,01,11.40
2020,08,13,03,02,11.40
2020,08,13,03,03,11.40
2020,08,13,03,04,11.40
2020,08,13,03,05,11.40
2020,08,13,03,06,11.40
2020,08,13,03,07,11.40
2020,08,13,03,08,11.40
2020,08,13,03,09,11.30
2020,08,13,03,10,11.30
2020,08,13,03,11,11.30
2020,08,13,03,12,11.30
2020,08,13,03,13,11.30
2020,08,13,03,14,11.30
2020,08,13,03,15,11.20
2020,08,13,03,16,11.20
2020,08,13,03,17,11.20
2020,08,13,03,18,11.20
2020,08,13,03,19,11.10
2020,08,13,03,20,11.10
2020,08,13,03,21,11.10
2020,08,13,03,22,11.00
2020,08,13,03,23,10.90
2020,08,13,03,24,10.80
2020,08,13,03,25,10.70
2020,08,13,03,26,10.60
2020,08,13,03,27,10.60
2020,08,13,03,28,10.50
2020,08,13,03,29,10.40
2020,08,13,03,30,10.40
2020,08,13,03,31,10.30
2020,08,13,03,32,10.20
2020,08,13,03,33,10.10
2020,08,13,03,34,10.10
2020,08,13,03,35,10.00
2020,08,13,03,36,9.90
2020,08,13,03,37,9.90
2020,08,13,03,38,9.90
2020,08,13,03,39,9.80
2020,08,13,03,40,9.80
2020,08,13,03,41,9.70
2020,08,13,03,42,9.70
2020,08,13,03,43,9.70
2020,08,13,03,44,9.70
2020,08,13,03,45,9.70
2020,08,13,03,46,9.60
2020,08,13,03,47,9.60
2020,08,13,03,48,9.60
2020,08,13,03,49,9.60
2020,08,13,03,50,9.50
2020,08,13,03,51,9.50
2020,08,13,03,52,9.50
2020,08,13,03,53,9.50
2020,08,13,03,54,9.50
2020,08,13,03,55,9.50
2020,08,13,03,56,9.40
2020,08,13,03,57,9.40
2020,08,13,03,58,9.40
2020,08,13,03,59,9.40
2020,08,13,04,00,9.40
2020,08,13,04,01,9.30
2020,08,13,04,02,9.30
2020,08,13,04,03,9.30
2020,08,13,04,04,9.30
2020,08,13,04,05,9.30
2020,08,13,04,06,9.30
2020,08,13,04,07,9.30
2020,08,13,04,08,9.30
2020,08,13,04,09,9.30
2020,08,13,04,10,9.30
2020,08,13,04,11,9.40
2020,08,13,04,12,9.40
2020,08,13,04,13,9.40
2020,08,13,04,14,9.40
2020,08,13,04,15,9.50
2020,08,13,04,16,9.50
2020,08,13,04,17,9.60
2020,08,13,04,18,9.70
2020,08,13,04,19,9.70
2020,08,13,04,20,9.80
2020,08,13,04,21,9.90
2020,08,13,04,22,10.00
2020,08,13,04,23,10.10
2020,08,13,04,24,10.20
2020,08,13,04,25,10.20
2020,08,13,04,26,10.30
2020,08,13,04,27,10.40
2020,08,13,04,28,10.40
2020,08,13,04,29,10.50
2020,08,13,04,30,10.60
2020,08,13,04,31,10.60
2020,08,13,04,32,10.60
2020,08,13,04,33,10.60
2020,08,13,04,34,10.60
2020,08,13,04,35,10.60
2020,08,13,04,36,10.60
2020,08,13,04,37,10.60
2020,08,13,04,38,10.60
2020,08,13,04,39,10.60
2020,08,13,04,40,10.60
2020,08,13,04,41,10.60
2020,08,13,04,42,10.60
2020,08,13,04,43,10.60
2020,08,13,04,44,10.70
2020,08,13,04,45,10.70
2020,08,13,04,46,10.70
2020,08,13,04,47,10.70
2020,08,13,04,48,10.70
2020,08,13,04,49,10.70
2020,08,13,04,50,10.70
2020,08,13,04,51,10.70
2020,08,13,04,52,10.70
2020,08,13,04,53,10.70
2020,08,13,04,54,10.70
2020,08,13,04,55,10.70
2020,08,13,04,56,10.70
2020,08,13,04,57,10.70
2020,08,13,04,58,10.70
2020,08,13,04,59,10.70
2020,08,13,05,00,10.60
2020,08,13,05,01,10.60
2020,08,13,05,02,10.60
2020,08,13,05,03,10.60
2020,08,13,05,04,10.60
2020,08,13,05,05,10.60
2020,08,13,05,06,10.60
2020,08,13,05,07,10.60
2020,08,13,05,08,10.60
2020,08,13,05,09,10.60
2020,08,13,05,10,10.60
2020,08,13,05,11,10.60
2020,08,13,05,12,10.50
2020,08,13,05,13,10.50
2020,08,13,05,14,10.60
2020,08,13,05,15,10.60
2020,08,13,05,16,10.60
2020,08,13,05,17,10.60
2020,08,13,05,18,10.60
2020,08,13,05,19,10.50
2020,08,13,05,20,10.40
2020,08,13,05,21,10.40
2020,08,13,05,22,10.40
2020,08,13,05,23,10.40
2020,08,13,05,24,10.40
2020,08,13,05,25,10.40
2020,08,13,05,26,10.50
2020,08,13,05,27,10.50
2020,08,13,05,28,10.60
2020,08,13,05,29,10.60
2020,08,13,05,30,10.60
2020,08,13,05,31,10.60
2020,08,13,05,32,10.60
2020,08,13,05,33,10.60
2020,08,13,05,34,10.60
2020,08,13,05,35,10.60
2020,08,13,05,36,10.60
2020,08,13,05,37,10.60
2020,08,13,05,38,10.60
2020,08,13,05,39,10.60
2020,08,13,05,40,10.60
2020,08,13,05,41,10.60
2020,08,13,05,42,10.60
2020,08,13,05,43,10.60
2020,08,13,05,44,10.60
2020,08,13,05,45,10.60
2020,08,13,05,46,10.60
2020,08,13,05,47,10.60
2020,08,13,05,48,10.60
2020,08,13,05,49,10.60
2020,08,13,05,50,10.60
2020,08,13,05,51,10.50
2020,08,13,05,52,10.40
2020,08,13,05,53,10.40
2020,08,13,05,54,10.30
2020,08,13,05,55,10.20
2020,08,13,05,56,10.10
2020,08,13,05,57,10.10
2020,08,13,05,58,10.00
2020,08,13,05,59,9.90
2020,08,13,06,00,9.90
2020,08,13,06,01,9.80
2020,08,13,06,02,9.70
2020,08,13,06,03,9.70
2020,08,13,06,04,9.70
2020,08,13,06,05,9.60
2020,08,13,06,06,9.50
2020,08,13,06,07,9.50
2020,08,13,06,08,9.40
2020,08,13,06,09,9.40
2020,08,13,06,10,9.30
2020,08,13,06,11,9.30
2020,08,13,06,12,9.30
2020,08,13,06,13,9.20
2020,08,13,06,14,9.20
2020,08,13,06,15,9.20
2020,08,13,06,16,9.20
2020,08,13,06,17,9.10
2020,08,13,06,18,9.10
2020,08,13,06,19,9.00
2020,08,13,06,20,9.00
2020,08,13,06,21,9.00
2020,08,13,06,22,9.00
2020,08,13,06,23,8.90
2020,08,13,06,24,8.90
2020,08,13,06,25,8.90
2020,08,13,06,26,8.90
2020,08,13,06,27,8.90
2020,08,13,06,28,8.90
2020,08,13,06,29,8.90
2020,08,13,06,30,8.90
2020,08,13,06,31,8.90
2020,08,13,06,32,8.90
2020,08,13,06,33,8.90
2020,08,13,06,34,8.80
2020,08,13,06,35,8.80
2020,08,13,06,36,8.80
2020,08,13,06,37,8.80
2020,08,13,06,38,8.80
2020,08,13,06,39,8.70
2020,08,13,06,40,8.70
2020,08,13,06,41,8.70
2020,08,13,06,42,8.70
2020,08,13,06,43,8.70
2020,08,13,06,44,8.70
2020,08,13,06,45,8.70
2020,08,13,06,46,8.70
2020,08,13,06,47,8.70
2020,08,13,06,48,8.70
2020,08,13,06,49,8.70
2020,08,13,06,50,8.70
2020,08,13,06,51,8.70
2020,08,13,06,52,8.70
2020,08,13,06,53,8.70
2020,08,13,06,54,8.70
2020,08,13,06,55,8.70
2020,08,13,06,56,8.70
2020,08,13,06,57,8.70
2020,08,13,06,58,8.80
2020,08,13,06,59,8.80
2020,08,13,07,00,8.90
2020,08,13,07,01,8.90
2020,08,13,07,02,8.90
2020,08,13,07,03,9.00
2020,08,13,07,04,9.00
2020,08,13,07,05,9.00
2020,08,13,07,06,9.10
2020,08,13,07,07,9.10
2020,08,13,07,08,9.20
2020,08,13,07,09,9.20
2020,08,13,07,10,9.20
2020,08,13,07,11,9.20
2020,08,13,07,12,9.20
2020,08,13,07,13,9.20
2020,08,13,07,14,9.30
2020,08,13,07,15,9.30
2020,08,13,07,16,9.30
2020,08,13,07,17,9.40
2020,08,13,07,18,9.40
2020,08,13,07,19,9.40
2020,08,13,07,20,9.40
2020,08,13,07,21,9.50
2020,08,13,07,22,9.50
2020,08,13,07,23,9.50
2020,08,13,07,24,9.60
2020,08,13,07,25,9.70
2020,08,13,07,26,9.70
2020,08,13,07,27,9.80
2020,08,13,07,28,9.80
2020,08,13,07,29,9.90
2020,08,13,07,30,10.00
2020,08,13,07,31,10.10
2020,08,13,07,32,10.10
2020,08,13,07,33,10.20
2020,08,13,07,34,10.40
2020,08,13,07,35,10.50
2020,08,13,07,36,10.60
2020,08,13,07,37,10.70
2020,08,13,07,38,10.80
2020,08,13,07,39,10.90
2020,08,13,07,40,11.00
2020,08,13,07,41,11.10
2020,08,13,07,42,11.20
2020,08,13,07,43,11.40
2020,08,13,07,44,11.40
2020,08,13,07,45,11.50
2020,08,13,07,46,11.60
2020,08,13,07,47,11.70
2020,08,13,07,48,11.80
2020,08,13,07,49,11.80
2020,08,13,07,50,11.90
2020,08,13,07,51,12.00
2020,08,13,07,52,12.00
2020,08,13,07,53,12.10
2020,08,13,07,54,12.10
2020,08,13,07,55,12.20
2020,08,13,07,56,12.20
2020,08,13,07,57,12.30
2020,08,13,07,58,12.30
2020,08,13,07,59,12.40
2020,08,13,08,00,12.40
2020,08,13,08,01,12.50
2020,08,13,08,02,12.50
2020,08,13,08,03,12.50
2020,08,13,08,04,12.60
2020,08,13,08,05,12.70
2020,08,13,08,06,12.70
2020,08,13,08,07,12.80
2020,08,13,08,08,12.80
2020,08,13,08,09,12.80
2020,08,13,08,10,12.90
2020,08,13,08,11,12.90
2020,08,13,08,12,13.00
2020,08,13,08,13,13.00
2020,08,13,08,14,13.10
2020,08,13,08,15,13.20
2020,08,13,08,16,13.20
2020,08,13,08,17,13.30
2020,08,13,08,18,13.30
2020,08,13,08,19,13.30
2020,08,13,08,20,13.40
2020,08,13,08,21,13.40
2020,08,13,08,22,13.50
2020,08,13,08,23,13.50
2020,08,13,08,24,13.60
2020,08,13,08,25,13.60
2020,08,13,08,26,13.70
2020,08,13,08,27,13.70
2020,08,13,08,28,13.80
2020,08,13,08,29,13.90
2020,08,13,08,30,14.10
2020,08,13,08,31,14.20
2020,08,13,08,32,14.20
2020,08,13,08,33,14.30
2020,08,13,08,34,14.30
2020,08,13,08,35,14.40
2020,08,13,08,36,14.40
2020,08,13,08,37,14.50
2020,08,13,08,38,14.50
2020,08,13,08,39,14.60
2020,08,13,08,40,14.60
2020,08,13,08,41,14.70
2020,08,13,08,42,14.80
2020,08,13,08,43,14.80
2020,08,13,08,44,14.90
2020,08,13,08,45,14.90
2020,08,13,08,46,15.00
2020,08,13,08,47,15.00
2020,08,13,08,48,15.10
2020,08,13,08,49,15.10
2020,08,13,08,50,15.20
2020,08,13,08,51,15.20
2020,08,13,08,52,15.30
2020,08,13,08,53,15.40
2020,08,13,08,54,15.50
2020,08,13,08,55,15.60
2020,08,13,08,56,15.70
2020,08,13,08,57,15.80
2020,08,13,08,58,15.80
2020,08,13,08,59,15.90
2020,08,13,09,00,16.00
2020,08,13,09,01,16.10
2020,08,13,09,02,16.10
2020,08,13,09,03,16.10
2020,08,13,09,04,16.10
2020,08,13,09,05,16.10
2020,08,13,09,06,16.10
2020,08,13,09,07,16.10
2020,08,13,09,08,16.20
2020,08,13,09,09,16.20
2020,08,13,09,10,16.20
2020,08,13,09,11,16.20
2020,08,13,09,12,16.20
2020,08,13,09,13,16.20
2020,08,13,09,14,16.20
2020,08,13,09,15,16.20
2020,08,13,09,16,16.30
2020,08,13,09,17,16.30
2020,08,13,09,18,16.30
2020,08,13,09,19,16.40
2020,08,13,09,20,16.40
2020,08,13,09,21,16.40
2020,08,13,09,22,16.40
2020,08,13,09,23,16.40
2020,08,13,09,24,16.40
2020,08,13,09,25,16.50
2020,08,13,09,26,16.60
2020,08,13,09,27,16.70
2020,08,13,09,28,16.80
2020,08,13,09,29,16.80
2020,08,13,09,30,16.90
2020,08,13,09,31,17.00
2020,08,13,09,32,17.00
2020,08,13,09,33,17.10
2020,08,13,09,34,17.20
2020,08,13,09,35,17.30
2020,08,13,09,36,17.30
2020,08,13,09,37,17.30
2020,08,13,09,38,17.30
2020,08,13,09,39,17.40
2020,08,13,09,40,17.40
2020,08,13,09,41,17.40
2020,08,13,09,42,17.30
2020,08,13,09,43,17.30
2020,08,13,09,44,17.30
2020,08,13,09,45,17.40
2020,08,13,09,46,17.50
2020,08,13,09,47,17.60
2020,08,13,09,48,17.70
2020,08,13,09,49,17.80
2020,08,13,09,50,17.80
2020,08,13,09,51,17.90
2020,08,13,09,52,17.90
2020,08,13,09,53,18.10
2020,08,13,09,54,18.10
2020,08,13,09,55,18.10
2020,08,13,09,56,18.00
2020,08,13,09,57,17.90
2020,08,13,09,58,17.90
2020,08,13,09,59,17.90
2020,08,13,10,00,18.00
2020,08,13,10,01,18.10
2020,08,13,10,02,18.20
2020,08,13,10,03,18.30
2020,08,13,10,04,18.30
2020,08,13,10,05,18.40
2020,08,13,10,06,18.40
2020,08,13,10,07,18.40
2020,08,13,10,08,18.40
2020,08,13,10,09,18.40
2020,08,13,10,10,18.40
2020,08,13,10,11,18.40
2020,08,13,10,12,18.30
2020,08,13,10,13,18.30
2020,08,13,10,14,18.30
2020,08,13,10,15,18.30
2020,08,13,10,16,18.50
2020,08,13,10,17,18.50
2020,08,13,10,18,18.50
2020,08,13,10,19,18.50
2020,08,13,10,20,18.50
2020,08,13,10,21,18.50
2020,08,13,10,22,18.50
2020,08,13,10,23,18.50
2020,08,13,10,24,18.60
2020,08,13,10,25,18.70
2020,08,13,10,26,18.60
2020,08,13,10,27,18.70
2020,08,13,10,28,18.70
2020,08,13,10,29,18.70
2020,08,13,10,30,18.70
2020,08,13,10,31,18.80
2020,08,13,10,32,18.80
2020,08,13,10,33,18.70
2020,08,13,10,34,18.70
2020,08,13,10,35,18.60
2020,08,13,10,36,18.70
2020,08,13,10,37,18.70
2020,08,13,10,38,18.70
2020,08,13,10,39,18.80
2020,08,13,10,40,18.90
2020,08,13,10,41,18.90
2020,08,13,10,42,19.10
2020,08,13,10,43,19.10
2020,08,13,10,44,19.10
2020,08,13,10,45,19.10
2020,08,13,10,46,19.20
2020,08,13,10,47,19.20
2020,08,13,10,48,19.20
2020,08,13,10,49,19.10
2020,08,13,10,50,19.10
2020,08,13,10,51,19.20
2020,08,13,10,52,19.30
2020,08,13,10,53,19.30
2020,08,13,10,54,19.40
2020,08,13,10,55,19.50
2020,08,13,10,56,19.60
2020,08,13,10,57,19.70
2020,08,13,10,58,19.70
2020,08,13,10,59,19.60
2020,08,13,11,00,19.50
2020,08,13,11,01,19.40
2020,08,13,11,02,19.30
2020,08,13,11,03,19.30
2020,08,13,11,04,19.30
2020,08,13,11,05,19.30
2020,08,13,11,06,19.40
2020,08,13,11,07,19.50
2020,08,13,11,08,19.50
2020,08,13,11,09,19.60
2020,08,13,11,10,19.70
2020,08,13,11,11,19.80
2020,08,13,11,12,19.90
2020,08,13,11,13,19.80
2020,08,13,11,14,19.70
2020,08,13,11,15,19.60
2020,08,13,11,16,19.60
2020,08,13,11,17,19.60
2020,08,13,11,18,19.60
2020,08,13,11,19,19.70
2020,08,13,11,20,19.80
2020,08,13,11,21,19.70
2020,08,13,11,22,19.70
2020,08,13,11,23,19.80
2020,08,13,11,24,19.80
2020,08,13,11,25,19.70
2020,08,13,11,26,19.60
2020,08,13,11,27,19.60
2020,08,13,11,28,19.60
2020,08,13,11,29,19.80
2020,08,13,11,30,19.90
2020,08,13,11,31,19.90
2020,08,13,11,32,19.90
2020,08,13,11,33,19.90
2020,08,13,11,34,19.90
2020,08,13,11,35,19.90
2020,08,13,11,36,19.90
2020,08,13,11,37,19.90
2020,08,13,11,38,19.80
2020,08,13,11,39,19.90
2020,08,13,11,40,19.90
2020,08,13,11,41,19.90
2020,08,13,11,42,19.90
2020,08,13,11,43,19.90
2020,08,13,11,44,20.00
2020,08,13,11,45,20.10
2020,08,13,11,46,20.20
2020,08,13,11,47,20.20
2020,08,13,11,48,20.20
2020,08,13,11,49,20.20
2020,08,13,11,50,20.20
2020,08,13,11,51,20.20
2020,08,13,11,52,20.20
2020,08,13,11,53,20.20
2020,08,13,11,54,20.20
2020,08,13,11,55,20.20
2020,08,13,11,56,20.20
2020,08,13,11,57,20.30
2020,08,13,11,58,20.30
2020,08,13,11,59,20.30
2020,08,13,12,00,20.30
2020,08,13,12,01,20.20
2020,08,13,12,02,20.10
2020,08,13,12,03,19.90
2020,08,13,12,04,19.90
2020,08,13,12,05,19.70
2020,08,13,12,06,19.60
2020,08,13,12,07,19.50
2020,08,13,12,08,19.60
2020,08,13,12,09,19.60
2020,08,13,12,10,19.80
2020,08,13,12,11,19.90
2020,08,13,12,12,19.90
2020,08,13,12,13,19.90
2020,08,13,12,14,20.10
2020,08,13,12,15,20.10
2020,08,13,12,16,20.20
2020,08,13,12,17,20.30
2020,08,13,12,18,20.40
2020,08,13,12,19,20.50
2020,08,13,12,20,20.50
2020,08,13,12,21,20.70
2020,08,13,12,22,20.80
2020,08,13,12,23,20.80
2020,08,13,12,24,20.90
2020,08,13,12,25,21.00
2020,08,13,12,26,21.00
2020,08,13,12,27,20.90
2020,08,13,12,28,20.90
2020,08,13,12,29,20.90
2020,08,13,12,30,20.90
2020,08,13,12,31,21.00
2020,08,13,12,32,21.00
2020,08,13,12,33,20.90
2020,08,13,12,34,20.80
2020,08,13,12,35,20.80
2020,08,13,12,36,20.80
2020,08,13,12,37,20.80
2020,08,13,12,38,20.90
2020,08,13,12,39,21.00
2020,08,13,12,40,21.20
2020,08,13,12,41,21.20
2020,08,13,12,42,21.20
2020,08,13,12,43,21.20
2020,08,13,12,44,21.30
2020,08,13,12,45,21.30
2020,08,13,12,46,21.30
2020,08,13,12,47,21.40
2020,08,13,12,48,21.40
2020,08,13,12,49,21.40
2020,08,13,12,50,21.40
2020,08,13,12,51,21.40
2020,08,13,12,52,21.40
2020,08,13,12,53,21.40
2020,08,13,12,54,21.20
2020,08,13,12,55,21.10
2020,08,13,12,56,21.00
2020,08,13,12,57,21.00
2020,08,13,12,58,20.90
2020,08,13,12,59,20.90
2020,08,13,13,00,20.90
2020,08,13,13,01,21.00
2020,08,13,13,02,21.00
2020,08,13,13,03,21.00
2020,08,13,13,04,21.00
2020,08,13,13,05,21.00
2020,08,13,13,06,20.90
2020,08,13,13,07,21.00
2020,08,13,13,08,20.90
2020,08,13,13,09,20.90
2020,08,13,13,10,20.90
2020,08,13,13,11,20.80
2020,08,13,13,12,20.80
2020,08,13,13,13,20.90
2020,08,13,13,14,20.80
2020,08,13,13,15,20.80
2020,08,13,13,16,20.90
2020,08,13,13,17,20.80
2020,08,13,13,18,20.80
2020,08,13,13,19,20.90
2020,08,13,13,20,21.00
2020,08,13,13,21,21.10
2020,08,13,13,22,21.10
2020,08,13,13,23,21.10
2020,08,13,13,24,21.10
2020,08,13,13,25,21.10
2020,08,13,13,26,21.10
2020,08,13,13,27,21.00
2020,08,13,13,28,20.90
2020,08,13,13,29,20.80
2020,08,13,13,30,20.70
2020,08,13,13,31,20.60
2020,08,13,13,32,20.50
2020,08,13,13,33,20.50
2020,08,13,13,34,20.50
2020,08,13,13,35,20.50
2020,08,13,13,36,20.60
2020,08,13,13,37,20.60
2020,08,13,13,38,20.60
2020,08,13,13,39,20.60
2020,08,13,13,40,20.60
2020,08,13,13,41,20.60
2020,08,13,13,42,20.70
2020,08,13,13,43,20.80
2020,08,13,13,44,20.80
2020,08,13,13,45,20.80
2020,08,13,13,46,20.80
2020,08,13,13,47,20.90
2020,08,13,13,48,21.00
2020,08,13,13,49,21.10
2020,08,13,13,50,21.20
2020,08,13,13,51,21.20
2020,08,13,13,52,21.10
2020,08,13,13,53,21.00
2020,08,13,13,54,21.10
2020,08,13,13,55,21.10
2020,08,13,13,56,21.20
2020,08,13,13,57,21.20
2020,08,13,13,58,21.30
2020,08,13,13,59,21.40
2020,08,13,14,00,21.40
2020,08,13,14,01,21.50
2020,08,13,14,02,21.40
2020,08,13,14,03,21.60
2020,08,13,14,04,21.60
2020,08,13,14,05,21.60
2020,08,13,14,06,21.70
2020,08,13,14,07,21.80
2020,08,13,14,08,21.80
2020,08,13,14,09,21.70
2020,08,13,14,10,21.70
2020,08,13,14,11,21.70
2020,08,13,14,12,21.70
2020,08,13,14,13,21.80
2020,08,13,14,14,21.80
2020,08,13,14,15,21.70
2020,08,13,14,16,21.70
2020,08,13,14,17,21.80
2020,08,13,14,18,21.80
2020,08,13,14,19,21.80
2020,08,13,14,20,21.80
2020,08,13,14,21,21.80
2020,08,13,14,22,21.80
2020,08,13,14,23,21.80
2020,08,13,14,24,21.80
2020,08,13,14,25,21.90
2020,08,13,14,26,22.00
2020,08,13,14,27,22.20
2020,08,13,14,28,22.30
2020,08,13,14,29,22.40
2020,08,13,14,30,22.50
2020,08,13,14,31,22.60
2020,08,13,14,32,22.60
2020,08,13,14,33,22.70
2020,08,13,14,34,22.90
2020,08,13,14,35,22.90
2020,08,13,14,36,22.90
2020,08,13,14,37,22.80
2020,08,13,14,38,22.80
2020,08,13,14,39,22.70
2020,08,13,14,40,22.60
2020,08,13,14,41,22.60
2020,08,13,14,42,22.50
2020,08,13,14,43,22.40
2020,08,13,14,44,22.40
2020,08,13,14,45,22.40
2020,08,13,14,46,22.50
2020,08,13,14,47,22.50
2020,08,13,14,48,22.60
2020,08,13,14,49,22.60
2020,08,13,14,50,22.60
2020,08,13,14,51,22.50
2020,08,13,14,52,22.60
2020,08,13,14,53,22.60
2020,08,13,14,54,22.60
2020,08,13,14,55,22.80
2020,08,13,14,56,22.70
2020,08,13,14,57,22.60
2020,08,13,14,58,22.60
2020,08,13,14,59,22.60
2020,08,13,15,00,22.60
2020,08,13,15,01,22.70
2020,08,13,15,02,22.60
2020,08,13,15,03,22.60
2020,08,13,15,04,22.60
2020,08,13,15,05,22.60
2020,08,13,15,06,22.60
2020,08,13,15,07,22.60
2020,08,13,15,08,22.50
2020,08,13,15,09,22.60
2020,08,13,15,10,22.80
2020,08,13,15,11,22.90
2020,08,13,15,12,22.90
2020,08,13,15,13,23.00
2020,08,13,15,14,23.10
2020,08,13,15,15,23.10
2020,08,13,15,16,22.90
2020,08,13,15,17,22.80
2020,08,13,15,18,22.70
2020,08,13,15,19,22.70
2020,08,13,15,20,22.70
2020,08,13,15,21,22.70
2020,08,13,15,22,22.60
2020,08,13,15,23,22.60
2020,08,13,15,24,22.60
2020,08,13,15,25,22.70
2020,08,13,15,26,22.70
2020,08,13,15,27,22.70
2020,08,13,15,28,22.70
2020,08,13,15,29,22.70
2020,08,13,15,30,22.60
2020,08,13,15,31,22.60
2020,08,13,15,32,22.70
2020,08,13,15,33,22.70
2020,08,13,15,34,22.70
2020,08,13,15,35,22.80
2020,08,13,15,36,22.80
2020,08,13,15,37,23.00
2020,08,13,15,38,23.10
2020,08,13,15,39,23.10
2020,08,13,15,40,23.10
2020,08,13,15,41,23.10
2020,08,13,15,42,23.20
2020,08,13,15,43,23.30
2020,08,13,15,44,23.20
2020,08,13,15,45,23.10
2020,08,13,15,46,23.10
2020,08,13,15,47,23.10
2020,08,13,15,48,23.20
2020,08,13,15,49,23.30
2020,08,13,15,50,23.30
2020,08,13,15,51,23.50
2020,08,13,15,52,23.60
2020,08,13,15,53,23.60
2020,08,13,15,54,23.70
2020,08,13,15,55,23.70
2020,08,13,15,56,23.60
2020,08,13,15,57,23.60
2020,08,13,15,58,23.60
2020,08,13,15,59,23.60
2020,08,13,16,00,23.70
2020,08,13,16,01,23.80
2020,08,13,16,02,23.70
2020,08,13,16,03,23.60
2020,08,13,16,04,23.60
2020,08,13,16,05,23.60
2020,08,13,16,06,23.60
2020,08,13,16,07,23.70
2020,08,13,16,08,23.70
2020,08,13,16,09,23.80
2020,08,13,16,10,23.80
2020,08,13,16,11,23.70
2020,08,13,16,12,23.60
2020,08,13,16,13,23.60
2020,08,13,16,14,23.60
2020,08,13,16,15,23.70
2020,08,13,16,16,23.70
2020,08,13,16,17,23.80
2020,08,13,16,18,23.80
2020,08,13,16,19,23.80
2020,08,13,16,20,23.90
2020,08,13,16,21,23.90
2020,08,13,16,22,23.90
2020,08,13,16,23,23.90
2020,08,13,16,24,23.80
2020,08,13,16,25,23.70
2020,08,13,16,26,23.70
2020,08,13,16,27,23.60
2020,08,13,16,28,23.50
2020,08,13,16,29,23.40
2020,08,13,16,30,23.40
2020,08,13,16,31,23.40
2020,08,13,16,32,23.40
2020,08,13,16,33,23.40
2020,08,13,16,34,23.40
2020,08,13,16,35,23.50
2020,08,13,16,36,23.60
2020,08,13,16,37,23.60
2020,08,13,16,38,23.70
2020,08,13,16,39,23.70
2020,08,13,16,40,23.70
2020,08,13,16,41,23.70
2020,08,13,16,42,23.70
2020,08,13,16,43,23.70
2020,08,13,16,44,23.80
2020,08,13,16,45,23.80
2020,08,13,16,46,23.80
2020,08,13,16,47,23.80
2020,08,13,16,48,23.70
2020,08,13,16,49,23.60
2020,08,13,16,50,23.60
2020,08,13,16,51,23.60
2020,08,13,16,52,23.50
2020,08,13,16,53,23.40
2020,08,13,16,54,23.30
2020,08,13,16,55,23.30
2020,08,13,16,56,23.30
2020,08,13,16,57,23.30
2020,08,13,16,58,23.20
2020,08,13,16,59,23.10
2020,08,13,17,00,22.90
2020,08,13,17,01,22.90
2020,08,13,17,02,22.90
2020,08,13,17,03,22.90
2020,08,13,17,04,23.00
2020,08,13,17,05,23.10
2020,08,13,17,06,23.10
2020,08,13,17,07,23.20
2020,08,13,17,08,23.20
2020,08,13,17,09,23.20
2020,08,13,17,10,23.10
2020,08,13,17,11,23.10
2020,08,13,17,12,23.10
2020,08,13,17,13,23.00
2020,08,13,17,14,22.90
2020,08,13,17,15,22.80
2020,08,13,17,16,22.80
2020,08,13,17,17,22.80
2020,08,13,17,18,22.80
2020,08,13,17,19,22.80
2020,08,13,17,20,22.90
2020,08,13,17,21,22.90
2020,08,13,17,22,22.90
2020,08,13,17,23,23.00
2020,08,13,17,24,23.10
2020,08,13,17,25,23.10